Weather History for Doylestown, PA

Change the Weather History Date:

Saturday, July 6, 2013

  Actual Average (KTTN) Record (KTTN)
Temperature  
Mean Temperature 82 °F 75 °F  
Max Temperature 93 °F 85 °F 104 °F (2010)
Min Temperature 72 °F 66 °F 53 °F (1997)
Degree Days  
Heating Degree Days 0 0  
Month to date heating degree days 0  
Since 1 June heating degree days 24  
Since 1 July heating degree days 0  
Cooling Degree Days 16 10  
Month to date cooling degree days 59  
Year to date cooling degree days 306  
Since 1 June cooling degree days 249  
Growing Degree Days 32 (Base 50)    
Moisture  
Dew Point 71 °F    
Average Humidity 69    
Maximum Humidity 97    
Minimum Humidity 45    
Precipitation  
Precipitation 0.00 in 0.15 in 2.22 in (1901)
Month to date precipitation 0.96  
Year to date precipitation 22.89  
Sea Level Pressure  
Sea Level Pressure 30.10 in    
Wind  
Wind Speed 5 mph (SW)    
Max Wind Speed 10 mph    
Max Gust Speed -    
Visibility 10 miles    
Events      
T = Trace of Precipitation, MM = Missing Value Source: NWS Daily Summary

Daily Weather History Graph

Daily Weather History Graph

Search for Another Location

Airport:

Trip Planner

Search our weather history database for the weather conditions in past years. The results will help you decide how hot, cold, wet, or windy it might be!

Date:

Astronomy

Jul. 06, 2013 Rise Set
Actual Time 5:37 AM EDT 8:33 PM EDT
Civil Twilight 5:04 AM EDT 9:05 PM EDT
Nautical Twilight 4:23 AM EDT 9:47 PM EDT
Astronomical Twilight 3:35 AM EDT 10:34 PM EDT
Moon 4:21 AM EDT (7/6) 7:12 PM EDT (7/6)
Length of Visible Light 16h 01m
Length of Day
14h 55m
Waning Crescent, 2% of the Moon is Illuminated
Jul 6
Waning Crescent
Jul 8
New
Jul 15
First Quarter
Jul 22
Full
Jul 29
Last Quarter

Hourly Weather History & Observations

Time (EDT) Temp. Heat Index Dew Point Humidity Pressure Visibility Wind Dir Wind Speed Gust Speed Precip Events Conditions
12:54 AM 77.0 °F - 71.1 °F 82% 30.14 in 10.0 mi Variable 5.8 mph - N/A   Clear
1:54 AM 75.9 °F - 71.1 °F 85% 30.13 in 10.0 mi SSW 3.5 mph - N/A   Clear
2:54 AM 75.9 °F - 71.1 °F 85% 30.13 in 10.0 mi SW 3.5 mph - N/A   Clear
3:54 AM 73.0 °F - 71.1 °F 93% 30.14 in 10.0 mi Calm Calm - N/A   Clear
4:54 AM 72.0 °F - 71.1 °F 97% 30.13 in 10.0 mi Calm Calm - N/A   Clear
5:54 AM 73.0 °F - 72.0 °F 96% 30.14 in 10.0 mi Calm Calm - N/A   Clear
6:54 AM 75.0 °F - 72.0 °F 90% 30.15 in 10.0 mi SW 4.6 mph - N/A   Clear
7:54 AM 78.1 °F - 72.0 °F 81% 30.15 in 10.0 mi WSW 4.6 mph - N/A   Clear
8:54 AM 81.0 °F 85.8 °F 73.0 °F 77% 30.15 in 10.0 mi Variable 3.5 mph - N/A   Clear
9:54 AM 84.0 °F 90.2 °F 73.0 °F 69% 30.14 in 10.0 mi Variable 5.8 mph - N/A   Clear
10:54 AM 86.0 °F 92.2 °F 72.0 °F 63% 30.13 in 10.0 mi SW 10.4 mph - N/A   Clear
11:54 AM 88.0 °F 93.8 °F 71.1 °F 57% 30.13 in 10.0 mi West 9.2 mph - N/A   Clear
12:54 PM 89.1 °F 95.0 °F 71.1 °F 55% 30.12 in 10.0 mi West 8.1 mph - N/A   Clear
1:54 PM 91.0 °F 95.6 °F 69.1 °F 48% 30.10 in 10.0 mi SW 8.1 mph - N/A   Partly Cloudy
2:54 PM 91.9 °F 97.4 °F 70.0 °F 48% 30.09 in 10.0 mi SW 8.1 mph - N/A   Clear
3:54 PM 91.9 °F 95.9 °F 68.0 °F 45% 30.07 in 10.0 mi WSW 6.9 mph - N/A   Clear
4:54 PM 91.9 °F 96.9 °F 69.1 °F 47% 30.06 in 10.0 mi Variable 6.9 mph - N/A   Clear
5:54 PM 91.0 °F 96.6 °F 70.0 °F 50% 30.05 in 10.0 mi WSW 6.9 mph - N/A   Clear
6:54 PM 89.1 °F 94.1 °F 70.0 °F 53% 30.04 in 10.0 mi WSW 4.6 mph - N/A   Clear
7:54 PM 87.1 °F 92.0 °F 70.0 °F 57% 30.04 in 10.0 mi Calm Calm - N/A   Clear
8:54 PM 82.9 °F 87.5 °F 71.1 °F 67% 30.04 in 10.0 mi South 4.6 mph - N/A   Clear
9:54 PM 82.9 °F 87.5 °F 71.1 °F 67% 30.06 in 10.0 mi SW 4.6 mph - N/A   Clear
10:54 PM 81.0 °F 85.2 °F 72.0 °F 74% 30.07 in 10.0 mi SSW 4.6 mph - N/A   Clear
11:54 PM 81.0 °F 84.9 °F 71.1 °F 72% 30.08 in 10.0 mi SW 6.9 mph - N/A   Clear